{"data":{"norad_id":59702,"epoch":"2026-09-20T20:55:13.633248Z","epoch_age_seconds":139111,"freshness":"FRESH","line1":"1 59702U 24086W   26263.87168557  .00001518  00000+0  64681-4 0  9992","line2":"2 59702  43.0077  37.5270 0001808 275.5421  84.5225 15.27581511133967","mean_motion":15.27581511,"eccentricity":0.0001808,"inclination_deg":43.0077,"raan_deg":37.527,"arg_perigee_deg":275.5421,"mean_anomaly_deg":84.5225,"bstar":6.4681e-5,"rev_number":13396,"period_min":94.266655470145,"perigee_km":481.80406993766,"apogee_km":484.28507319394,"semimajor_km":6861.1815715658,"source":"CELESTRAK","updated_at":"2026-09-22T09:00:49.056345Z"}}